Wappingers Falls, NY

8:08 PM EST on February 27, 2017 (GMT -0500)
Dutchess County

Weather History for KPOU - May, 2013

Change the Weather History Date:

Sunday, May 26, 2013

  Actual Average Record
Temperature  
Mean Temperature 53 °F 62 °F  
Max Temperature 63 °F 74 °F 95 °F (1965)
Min Temperature 42 °F 50 °F 31 °F (1949)
Degree Days  
Heating Degree Days 12 5  
Month to date heating degree days 198 202  
Since 1 July heating degree days 5666 6141  
Cooling Degree Days 0 2  
Month to date cooling degree days 25 22  
Year to date cooling degree days 25 27  
Growing Degree Days 4 (Base 50)    
Moisture  
Dew Point 37 °F    
Average Humidity 62    
Maximum Humidity 89    
Minimum Humidity 34    
Precipitation  
Precipitation 0.00 in 0.16 in 1.49 in (1983)
Month to date precipitation 3.93 3.63  
Year to date precipitation 10.39 16.72  
Sea Level Pressure  
Sea Level Pressure 30.00 in    
Wind  
Wind Speed 10 mph (NW)    
Max Wind Speed 24 mph    
Max Gust Speed 36 mph    
Visibility 10 miles    
Events Thunderstorm    
T = Trace of Precipitation, MM = Missing Value Source: NWS Daily Summary

Daily Weather History Graph

Daily Weather History Graph

Search for Another Location

Airport or City:

Trip Planner

Search our weather history database for the weather conditions in past years. The results will help you decide how hot, cold, wet, or windy it might be!

Date:

Astronomy

May. 26, 2013 Rise Set
Actual Time 5:26 AM EDT 8:18 PM EDT
Civil Twilight 4:54 AM EDT 8:51 PM EDT
Nautical Twilight 4:12 AM EDT 9:33 PM EDT
Astronomical Twilight 3:24 AM EDT 10:21 PM EDT
Moon 10:03 PM EDT (5/26) 6:53 AM EDT (5/26)
Length of Visible Light 15h 57m
Length of Day
14h 51m
Waning Gibbous, 97% of the Moon is Illuminated
May 26
Waning Gibbous
May 31
Last Quarter
Jun 8
New
Jun 16
First Quarter
Jun 23
Full

Hourly Weather History & Observations

Time (EDT) Temp. Dew Point Humidity Pressure Visibility Wind Dir Wind Speed Gust Speed Precip Events Conditions
12:53 AM 48.0 °F 36.0 °F 63% 29.92 in 10.0 mi WNW 10.4 mph - N/A   Overcast
1:53 AM 48.0 °F 37.0 °F 66% 29.91 in 10.0 mi West 9.2 mph - N/A   Overcast
2:53 AM 46.9 °F 37.0 °F 68% 29.89 in 10.0 mi West 8.1 mph - N/A   Mostly Cloudy
3:53 AM 48.0 °F 37.0 °F 66% 29.89 in 10.0 mi WNW 8.1 mph - N/A   Mostly Cloudy
4:53 AM 48.0 °F 36.0 °F 63% 29.89 in 10.0 mi West 8.1 mph - N/A   Partly Cloudy
5:53 AM 48.0 °F 37.0 °F 66% 29.92 in 10.0 mi West 6.9 mph - N/A   Mostly Cloudy
6:53 AM 48.9 °F 37.0 °F 64% 29.94 in 10.0 mi West 8.1 mph - N/A   Scattered Clouds
7:53 AM 53.1 °F 37.0 °F 55% 29.94 in 10.0 mi WNW 12.7 mph - N/A   Mostly Cloudy
8:53 AM 53.1 °F 37.9 °F 57% 29.96 in 10.0 mi WNW 9.2 mph - N/A   Mostly Cloudy
9:53 AM 57.0 °F 39.0 °F 51% 29.97 in 10.0 mi NNW 13.8 mph 28.8 mph N/A   Mostly Cloudy
10:53 AM 57.9 °F 39.0 °F 49% 29.97 in 10.0 mi NNW 17.3 mph 26.5 mph N/A   Mostly Cloudy
11:19 AM 60.8 °F 37.4 °F 42% 29.98 in 10.0 mi NNW 21.9 mph 34.5 mph N/A Thunderstorm Thunderstorm
11:21 AM 60.8 °F 37.4 °F 42% 29.98 in 10.0 mi NNW 23.0 mph 34.5 mph N/A   Scattered Clouds
11:53 AM 59.0 °F 39.0 °F 48% 29.99 in 10.0 mi NW 16.1 mph 31.1 mph N/A   Clear
12:53 PM 61.0 °F 39.0 °F 44% 29.99 in 10.0 mi NNW 19.6 mph 28.8 mph N/A   Scattered Clouds
1:53 PM 60.1 °F 37.9 °F 44% 30.01 in 10.0 mi NNW 18.4 mph 27.6 mph N/A   Mostly Cloudy
2:53 PM 62.1 °F 37.9 °F 41% 30.01 in 10.0 mi NNW 21.9 mph 29.9 mph N/A   Partly Cloudy
3:53 PM 61.0 °F 37.9 °F 42% 30.02 in 10.0 mi NW 15.0 mph 24.2 mph N/A   Mostly Cloudy
4:53 PM 61.0 °F 35.1 °F 38% 30.05 in 10.0 mi NNW 16.1 mph 28.8 mph N/A   Mostly Cloudy
5:53 PM 62.1 °F 37.0 °F 39% 30.04 in 10.0 mi North 6.9 mph - N/A   Mostly Cloudy
6:53 PM 62.1 °F 33.1 °F 34% 30.07 in 10.0 mi NNW 16.1 mph 25.3 mph N/A   Mostly Cloudy
7:53 PM 59.0 °F 32.0 °F 36% 30.10 in 10.0 mi NW 9.2 mph 17.3 mph N/A   Clear
8:53 PM 55.9 °F 33.1 °F 42% 30.10 in 10.0 mi West 5.8 mph - N/A   Clear
9:53 PM 52.0 °F 34.0 °F 50% 30.13 in 10.0 mi West 4.6 mph - N/A   Clear
10:53 PM 45.0 °F 39.0 °F 80% 30.15 in 10.0 mi Calm Calm - N/A   Clear
11:53 PM 43.0 °F 39.9 °F 89% 30.16 in 10.0 mi Calm Calm - N/A   Clear